Location: Nairn
(57.5833°N, 3.8667°W)
Time: 15:39:08
(UTC+00:00)

Tiros 1 despin weight - Visible Passes

Search period start: 26 November 2020 00:00
Search period end: 06 December 2020 00:00
Orbit: 593 x 642 km, 48.2° (Epoch: 25 November)

Date Brightness Start Highest point End Pass type
(mag) Time Alt. Az. Time Alt. Az. Time Alt. Az.
26 Nov ? 17:07:45 10° WSW 17:11:27 23° SSW 17:15:07 10° SE visible
26 Nov ? 18:50:05 10° SW 18:51:52 12° SSW 18:53:39 10° S visible
27 Nov ? 17:24:10 10° WSW 17:27:30 19° SSW 17:30:48 10° SSE visible
28 Nov ? 17:40:51 10° WSW 17:43:29 15° SSW 17:46:05 10° S visible
29 Nov ? 17:58:46 10° SW 17:59:22 10° SW 17:59:59 10° SSW visible
30 Nov ? 16:31:56 10° WSW 16:35:03 18° SSW 16:38:08 10° SSE visible
01 Dec ? 16:48:52 10° WSW 16:50:59 13° SSW 16:53:08 10° S visible
